Location: Newark
(53.3333°N, 12.7167°E)
Time: 23:24:12
(UTC+00:00)

ISS - Visible Passes

Search period start: 23 October 2019 00:00
Search period end: 02 November 2019 00:00
Orbit: 411 x 421 km, 51.6° (Epoch: 24 October)

Date Brightness Start Highest point End Pass type
(mag) Time Alt. Az. Time Alt. Az. Time Alt. Az.
24 Oct -0.3 04:52:34 10° SE 04:53:00 10° SE 04:53:24 10° SE visible
26 Oct -1.2 04:49:35 10° SSW 04:52:05 20° SSE 04:54:37 10° E visible
27 Oct -0.9 04:01:50 10° S 04:03:41 14° SE 04:05:33 10° ESE visible
28 Oct -2.2 04:48:13 10° SW 04:51:18 33° SSE 04:54:22 10° E visible
29 Oct -1.9 04:01:17 18° S 04:02:48 25° SSE 04:05:38 10° E visible
30 Oct -1.3 03:14:52 18° SE 03:14:52 18° SE 03:16:45 10° E visible
30 Oct -3.1 04:47:47 13° WSW 04:50:34 51° SSE 04:53:51 10° E visible
31 Oct -2.8 04:01:16 35° SSW 04:01:59 41° SSE 04:05:11 10° E visible
01 Nov -1.5 03:14:41 24° ESE 03:14:41 24° ESE 03:16:28 10° E visible
01 Nov -3.5 04:47:35 19° WSW 04:49:52 64° S 04:53:13 10° E visible
